Overview Statistics Trail Chart Weather Telemetry Raw packets
 

This is the latest recevied weather packets stored in our database for station/object OE-11190. If no packets are shown the sender has not sent any weather packets the latest 10 day(s).

<< 1 2 3 4 5 6 >>
Time Temp. Humidity Pressure Rain* Wind** Luminosity Snow
1788379508 22.22° C 59% 1018.6 hPa 0 mm - 0 W/m² -
1788378908 22.22° C 58% 1018.6 hPa 0 mm - 0 W/m² -
1788378081 21.67° C 61% 1018.5 hPa 0 mm - 0 W/m² -
1788377708 20° C 69% 1018.5 hPa 0 mm - 0 W/m² -
1788377107 20° C 69% 1018.5 hPa 0 mm - 0 W/m² -
1788376281 20.56° C 68% 1018.5 hPa 0 mm - 0 W/m² -
1788375907 20.56° C 68% 1018.5 hPa 0 mm - 0 W/m² -
1788375308 20.56° C 67% 1018.3 hPa 0 mm - 0 W/m² -
1788374481 21.11° C 66% 1018.1 hPa 0 mm - 0 W/m² -
1788374108 21.11° C 65% 1018 hPa 0 mm - 0 W/m² -
1788373508 21.67° C 64% 1018 hPa 0 mm - 0 W/m² -
1788372681 22.22° C 62% 1017.8 hPa 0 mm - 0 W/m² -
1788372308 22.78° C 61% 1017.9 hPa 0 mm - 0 W/m² -
1788371708 23.33° C 59% 1017.8 hPa 0 mm - 0 W/m² -
1788370881 23.89° C 56% 1017.6 hPa 0 mm - 8 W/m² -
1788370507 25° C 53% 1017.5 hPa 0 mm - 15 W/m² -
1788369908 25.56° C 49% 1017.5 hPa 0 mm - 30 W/m² -
1788369081 25.56° C 48% 1017.5 hPa 0 mm - 61 W/m² -
1788368708 26.11° C 47% 1017.4 hPa 0 mm - 129 W/m² -
1788368108 26.11° C 46% 1017.5 hPa 0 mm - 190 W/m² -
1788367281 26.11° C 47% 1017.5 hPa 0 mm - 174 W/m² -
1788366908 26.11° C 46% 1017.6 hPa 0 mm - 182 W/m² -
1788366308 26.11° C 46% 1017.6 hPa 0 mm - 83 W/m² -
1788365481 26.11° C 46% 1017.7 hPa 0 mm - 99 W/m² -
1788365107 26.11° C 46% 1017.8 hPa 0 mm - 99 W/m² -

* Rain latest hour (hover to see other rain measurements)
** Current wind speed in m/s (hover to see current wind gust speed)